Location: Ferchesar
(52.6477°N, 12.4298°E)
Time: 09:40:39
(UTC+01:00)

Transit 2A - Pass Details

Date: 14 December 2021
Orbit: 591 x 966 km, 66.7° (Epoch: 26 January)

Event Time Altitude Azimuth Distance (km) Brightness Sun altitude
Exits shadow 04:27:34 35° 13° (NNE) 1,504 7.5 -32.9°
Maximum altitude 04:28:27 37° 31° (NNE) 1,463 7.6 -32.8°
Drops below altitude 10° 04:34:14 10° 97° (E) 2,660 9.6 -31.9°
Sets 04:36:56 0° 106° (ESE) 3,566 10.5 -31.5°
